This is the latest recevied weather packets stored in our database for station/object HS5XHC-1. If no packets are shown the sender has not sent any weather packets the latest 10 day(s).
| Time | Temp. | Humidity | Pressure | Rain* | Wind** | Luminosity | Snow |
|---|---|---|---|---|---|---|---|
| 1777522980 | 30.56° C | 46% | 970 hPa | - | - | 0 W/m² | - |
| 1777522356 | 30.56° C | 48% | 970 hPa | - | - | 0 W/m² | - |
| 1777521732 | 30.56° C | 48% | 970 hPa | - | - | 0 W/m² | - |
| 1777521107 | 30.56° C | 49% | 970 hPa | - | - | 0 W/m² | - |
| 1777520483 | 30° C | 48% | 970 hPa | - | - | 0 W/m² | - |
| 1777519859 | 29.44° C | 48% | 970 hPa | - | - | 0 W/m² | - |
| 1777519235 | 29.44° C | 50% | 970 hPa | - | - | 0 W/m² | - |
| 1777518610 | 28.89° C | 51% | 970 hPa | - | - | 0 W/m² | - |
| 1777517986 | 28.89° C | 49% | 971 hPa | - | - | 0 W/m² | - |
| 1777517362 | 28.33° C | 48% | 971 hPa | - | - | 0 W/m² | - |
| 1777516712 | 28.33° C | 50% | 971 hPa | - | - | 0 W/m² | - |
| 1777516088 | 28.33° C | 51% | 971 hPa | - | - | 0 W/m² | - |
| 1777515464 | 27.22° C | 54% | 971 hPa | - | - | 0 W/m² | - |
| 1777514840 | 27.22° C | 56% | 971 hPa | - | - | 0 W/m² | - |
| 1777514215 | 27.22° C | 55% | 971 hPa | - | - | 0 W/m² | - |
| 1777513591 | 27.22° C | 56% | 971 hPa | - | - | 0 W/m² | - |
| 1777512966 | 26.67° C | 58% | 971 hPa | - | - | 0 W/m² | - |
| 1777512342 | 26.11° C | 59% | 970 hPa | - | - | 0 W/m² | - |
| 1777511718 | 26.67° C | 60% | 970 hPa | - | - | 0 W/m² | - |
| 1777511094 | 26.67° C | 59% | 970 hPa | - | - | 0 W/m² | - |
| 1777510470 | 26.67° C | 61% | 970 hPa | - | - | 0 W/m² | - |
| 1777509846 | 27.22° C | 59% | 970 hPa | - | - | 0 W/m² | - |
| 1777509221 | 27.78° C | 57% | 970 hPa | - | - | 0 W/m² | - |
| 1777508597 | 27.22° C | 58% | 969 hPa | - | - | 0 W/m² | - |
| 1777507973 | 27.78° C | 57% | 969 hPa | - | - | 0 W/m² | - |
* Rain since midnight (hover to see other rain measurements)
** Current wind speed in m/s (hover to see current wind gust speed)